NOZ1864 ENGM-LIBD

Flight info

Callsign NOZ1864
Flight time N/A
Altitude 35000
Route OKSAT L996 KELIN DCT SALLO DCT MAREM DCT APRAQ DCT SKODA DCT AIOSA DCT BANAV
Aircraft B738/M-SDE2E3FGHIRWXY/LB1

Departure

Time 2026-05-07 11:43
Airport Oslo-Gardermoen International Airport (ENGM)

Arrival

Time N/A
Airport Bari Karol Wojtyła International Airport (LIBD)
Time Latitude Longitude Altitude Speed Heading
2026-05-07 11:16 60.19333 11.10343 684 ft 0 kts 16°
2026-05-07 11:32 60.19321 11.10336 684 ft 4 kts 16°
2026-05-07 11:32 60.19295 11.10322 684 ft 4 kts 16°
2026-05-07 11:33 60.19270 11.10312 681 ft 4 kts 354°
2026-05-07 11:33 60.19246 11.10328 680 ft 4 kts 318°
2026-05-07 11:33 60.19233 11.10364 682 ft 1 kts 286°
2026-05-07 11:33 60.19233 11.10365 682 ft 1 kts 286°
2026-05-07 11:34 60.19232 11.10365 682 ft 0 kts 286°
2026-05-07 11:37 60.19233 11.10364 682 ft 0 kts 286°
2026-05-07 11:37 60.19239 11.10339 676 ft 4 kts 307°
2026-05-07 11:37 60.19269 11.10352 678 ft 6 kts 66°
2026-05-07 11:37 60.19258 11.10468 681 ft 11 kts 110°
2026-05-07 11:38 60.19233 11.10629 684 ft 13 kts 99°
2026-05-07 11:38 60.19211 11.10804 684 ft 13 kts 106°
2026-05-07 11:38 60.19186 11.10974 678 ft 13 kts 106°
2026-05-07 11:38 60.19173 11.11096 681 ft 6 kts 88°
2026-05-07 11:39 60.19203 11.11161 683 ft 8 kts 23°
2026-05-07 11:39 60.19268 11.11193 683 ft 11 kts 15°
2026-05-07 11:39 60.19352 11.11242 683 ft 14 kts 16°
2026-05-07 11:39 60.19456 11.11302 679 ft 17 kts 16°
2026-05-07 11:40 60.19578 11.11372 680 ft 19 kts 16°
2026-05-07 11:40 60.19706 11.11445 681 ft 19 kts 16°
2026-05-07 11:40 60.19834 11.11520 684 ft 19 kts 16°
2026-05-07 11:40 60.19957 11.11590 681 ft 18 kts 17°
2026-05-07 11:41 60.20070 11.11665 683 ft 16 kts 35°
2026-05-07 11:41 60.20072 11.11865 684 ft 13 kts 107°
2026-05-07 11:41 60.20053 11.11991 680 ft 8 kts 105°
2026-05-07 11:41 60.20032 11.12091 686 ft 8 kts 127°
2026-05-07 11:42 60.19986 11.12153 688 ft 9 kts 163°
2026-05-07 11:42 60.19916 11.12129 687 ft 12 kts 196°
2026-05-07 11:42 60.19748 11.12033 680 ft 57 kts 196°
2026-05-07 11:42 60.19114 11.11666 683 ft 130 kts 196°
2026-05-07 11:43 60.18066 11.11062 862 ft 170 kts 197°
2026-05-07 11:43 60.16960 11.10418 1848 ft 164 kts 197°
2026-05-07 11:43 60.15839 11.09801 2572 ft 175 kts 194°
2026-05-07 11:43 60.14553 11.09400 2891 ft 203 kts 176°
2026-05-07 11:44 60.13098 11.10004 3103 ft 225 kts 168°
2026-05-07 11:44 60.11610 11.11237 3428 ft 243 kts 140°
2026-05-07 11:44 60.10463 11.13910 3811 ft 260 kts 129°
2026-05-07 11:44 60.09284 11.16718 4546 ft 265 kts 132°
2026-05-07 11:45 60.08037 11.19442 5393 ft 266 kts 137°
2026-05-07 11:45 60.06498 11.21506 6141 ft 269 kts 154°
2026-05-07 11:45 60.04829 11.23144 6910 ft 272 kts 155°
2026-05-07 11:45 60.03116 11.24824 7601 ft 277 kts 154°
2026-05-07 11:46 60.01381 11.26549 8322 ft 281 kts 154°
2026-05-07 11:46 59.99620 11.28312 9045 ft 285 kts 154°
2026-05-07 11:46 59.97835 11.30115 9765 ft 289 kts 154°
2026-05-07 11:46 59.96016 11.31964 10292 ft 299 kts 155°
2026-05-07 11:47 59.94090 11.33925 10472 ft 321 kts 155°
2026-05-07 11:47 59.92027 11.36027 10645 ft 342 kts 155°
2026-05-07 11:47 59.89858 11.38245 10807 ft 361 kts 155°
2026-05-07 11:47 59.87585 11.40574 11188 ft 372 kts 155°
2026-05-07 11:48 59.85270 11.42948 11783 ft 376 kts 155°
2026-05-07 11:48 59.82941 11.45337 12455 ft 379 kts 155°
2026-05-07 11:48 59.80581 11.47752 13110 ft 383 kts 155°
2026-05-07 11:48 59.78197 11.50187 13770 ft 388 kts 155°
2026-05-07 11:49 59.75790 11.52641 14389 ft 391 kts 156°
2026-05-07 11:49 59.73354 11.55120 15037 ft 394 kts 156°
2026-05-07 11:49 59.70928 11.57584 15673 ft 398 kts 156°
2026-05-07 11:49 59.68451 11.60095 16292 ft 402 kts 156°
2026-05-07 11:50 59.65943 11.62633 16896 ft 406 kts 156°
2026-05-07 11:50 59.63415 11.65187 17479 ft 410 kts 157°
2026-05-07 11:50 59.60861 11.67764 18058 ft 415 kts 157°
2026-05-07 11:50 59.58272 11.70371 18590 ft 419 kts 157°
2026-05-07 11:51 59.55655 11.73002 19069 ft 423 kts 158°
2026-05-07 11:51 59.53020 11.75646 19588 ft 426 kts 158°